[ hide orbit diagram ]
For accurate long-term ephemerides, please instead use our Horizons system.This orbit viewer was implemented using two-body methods, and hence should not be used for determining accurate long-term trajectories (over several years or decades) or planetary encounter circumstances.
Orbital Elements at Epoch 2459000.5 (2020-May-31.0) TDB
Reference: JPL 16 (heliocentric ecliptic J2000)
Element | Value | Uncertainty (1-sigma) | Units |
e | .1494054631918413 | 5.1492e-08 | |
a | 2.440052803634293 | 1.4567e-08 | au |
q | 2.075495584294761 | 1.2594e-07 | au |
i | 3.491603061779878 | 5.5614e-06 | deg |
node | 22.96747048459234 | 9.0557e-05 | deg |
peri | 44.43908884686331 | 9.2235e-05 | deg |
M | 68.56079762397789 | 1.7786e-05 | deg |
tp | 2458735.362824984312 (2019-Sep-08.86282498) | 6.8325e-05 | TDB |
period | 1392.18600590297 3.81 | 1.2466e-05 3.413e-08 | d yr |
n | .2585861361007609 | 2.3155e-09 | deg/d |
Q | 2.804610022973826 | 1.6743e-08 | au |
|
| | Orbit Determination Parameters
Additional Information
|
[ show covariance matrix ]
Physical Parameter Table
Parameter |
Symbol |
Value |
Units |
Sigma |
Reference |
Notes |
absolute magnitude |
H |
17.0 |
|
n/a |
MPO494171 |
|
|
212016 (2005 CA11) Discovered 2005-Feb-01 by Spacewatch at Kitt Peak |
Reference: 20090409/Numbers.arc | Last Updated: 2009-04-10 |
|
[ hide close-approach data ]
Close-Approach Data ...sorted by Date/Time (TDB)
|
Date/Time (TDB) |
Time Uncertainty (days_HH:MM) |
Body |
Nominal Distance (au) |
Minimum Distance (au) |
Maximum Distance (au) |
V-relative (km/s) |
V-infinity (km/s) |
JD (TDB) |
Time Uncertainty (minutes) |
Semi-major axis (km) |
Semi-minor axis (km) |
range-LOV angle (deg) |
N-sigma |
BP |
Orbit Ref. |
Reference |
Modified |
2139-Oct-14 03:42 |
00:20 |
Hygie |
0.02380663005439 |
0.023800963973706 |
0.023812313541566 |
2.8265422920896 |
2.82654171790828 |
2502599.654466682 |
19.716021982855 |
1072.48458036867 |
59.4683147269148 |
-75.0877942027769 |
57669.05794756 |
T |
16 |
CATAB v2.0f-lin.ifort 2020-Nov-12 04:03:41 |
2020-Nov-12 04:03 |
2175-Jun-10 00:18 |
00:02 |
Juno |
0.0416296708947087 |
0.0416277979262221 |
0.0416315542197809 |
5.95061136387249 |
5.95061131476119 |
2515622.512490703 |
2.02812630983099 |
2477.654908413 |
85.042703242003 |
-89.0956185453213 |
73187.7557684181 |
T |
16 |
CATAB v2.0f-lin.ifort 2020-Nov-12 04:03:41 |
2020-Nov-12 04:03 |
|
|